Location: Newark
(44.2003°N, 3.2583°E)
Time: 19:54:51
(UTC+00:00)

Envisat - Visible Passes

Search period start: 25 September 2020 00:00
Search period end: 05 October 2020 00:00
Orbit: 764 x 766 km, 98.1° (Epoch: 25 September)

Date Brightness Start Highest point End Pass type
(mag) Time Alt. Az. Time Alt. Az. Time Alt. Az.
25 Sep 6.0 18:07:11 10° SW 18:11:01 21° W 18:14:52 10° NW visible
26 Sep 6.2 04:35:31 10° NE 04:38:25 15° E 04:41:18 10° SE visible
27 Sep 6.5 18:34:46 10° WSW 18:36:46 12° W 18:38:46 10° WNW visible
28 Sep 5.6 04:59:54 10° NE 05:04:07 26° E 05:08:19 10° SSE visible
28 Sep 5.6 17:55:18 10° SSW 17:59:33 27° W 18:03:50 10° NW visible
29 Sep 6.5 04:25:07 10° ENE 04:26:55 12° E 04:28:42 10° ESE visible
30 Sep 6.2 18:22:15 10° SW 18:25:15 16° W 18:28:16 10° NW visible
01 Oct 6.0 04:48:52 10° NE 04:52:40 21° E 04:56:25 10° SE visible
03 Oct 5.0 05:13:39 10° NNE 05:18:18 35° E 05:22:56 10° SSE visible
03 Oct 6.1 18:10:07 10° SW 18:13:46 20° W 18:17:26 10° NW visible
04 Oct 6.2 04:38:00 10° NE 04:41:10 16° E 04:44:20 10° SE visible
